| time (UTC) | temp F | wind direction | speed knots | gust knots | rain 1hr in | rain 24hr in | rain mn in | humidity % | barometer mb |
| 20260906220321 | 99 | 188 | 1.7 | 6.1 | 0.00 | 0.00 | 0.00 | 27 | 1011.1 |
| 20260906214855 | 100 | 76 | 1.7 | 7.8 | 0.00 | 0.00 | 0.00 | 27 | 1011.2 |
| 20260906213327 | 99 | 70 | 2.6 | 7.0 | 0.00 | 0.00 | 0.00 | 28 | 1011.4 |
| 20260906211818 | 96 | 42 | 1.7 | 7.0 | 0.00 | 0.00 | 0.00 | 30 | 1011.7 |
| 20260906210330 | 96 | 109 | 5.2 | 10.4 | 0.00 | 0.00 | 0.00 | 31 | 1011.9 |
| 20260906204823 | 97 | 144 | 0.9 | 4.3 | 0.00 | 0.00 | 0.00 | 30 | 1012.1 |
| 20260906203317 | 97 | 78 | 4.3 | 9.6 | 0.00 | 0.00 | 0.00 | 30 | 1012.3 |
| 20260906201826 | 98 | 83 | 2.6 | 6.1 | 0.00 | 0.00 | 0.00 | 29 | 1012.3 |
| 20260906200318 | 96 | 201 | 1.7 | 7.0 | 0.00 | 0.00 | 0.00 | 32 | 1012.5 |
| 20260906194829 | 94 | 77 | 2.6 | 8.7 | 0.00 | 0.00 | 0.00 | 34 | 1012.8 |
| 20260906193342 | 94 | 78 | 0.9 | 8.7 | 0.00 | 0.00 | 0.00 | 34 | 1013.0 |
| 20260906191816 | 94 | 58 | 6.1 | 10.4 | 0.00 | 0.00 | 0.00 | 34 | 1013.1 |
| 20260906190330 | 95 | 302 | 2.6 | 6.1 | 0.00 | 0.00 | 0.00 | 33 | 1013.2 |
| 20260906184844 | 95 | 57 | 4.3 | 9.6 | 0.00 | 0.00 | 0.00 | 33 | 1013.5 |
| 20260906183316 | 96 | 161 | 0.9 | 8.7 | 0.00 | 0.00 | 0.00 | 33 | 1013.7 |
| 20260906181829 | 96 | 195 | 2.6 | 7.0 | 0.00 | 0.00 | 0.00 | 33 | 1013.8 |
| 20260906180340 | 95 | 90 | 2.6 | 6.1 | 0.00 | 0.00 | 0.00 | 34 | 1014.2 |
| 20260906174826 | 93 | 76 | 5.2 | 10.4 | 0.00 | 0.00 | 0.00 | 35 | 1014.5 |
| 20260906173318 | 91 | 88 | 0.9 | 8.7 | 0.00 | 0.00 | 0.00 | 38 | 1014.8 |
| 20260906171831 | 92 | 86 | 2.6 | 7.8 | 0.00 | 0.00 | 0.00 | 38 | 1014.9 |
| 20260906170322 | 93 | 214 | 0.9 | 5.2 | 0.00 | 0.00 | 0.00 | 38 | 1015.0 |
| 20260906164815 | 91 | 336 | 0.9 | 4.3 | 0.00 | 0.00 | 0.00 | 40 | 1015.2 |
| 20260906163329 | 91 | 44 | 1.7 | 7.8 | 0.00 | 0.00 | 0.00 | 39 | 1015.2 |
| 20260906161820 | 91 | 44 | 0.9 | 4.3 | 0.00 | 0.00 | 0.00 | 40 | 1015.2 |
| 20260906160317 | 90 | 335 | 0.9 | 3.5 | 0.00 | 0.00 | 0.00 | 41 | 1015.2 |
| 20260906154844 | 89 | 18 | 0.9 | 3.5 | 0.00 | 0.00 | 0.00 | 45 | 1015.2 |
| 20260906153316 | 88 | 351 | 0.9 | 4.3 | 0.00 | 0.00 | 0.00 | 45 | 1015.1 |
| 20260906151824 | 87 | 279 | 1.7 | 3.5 | 0.00 | 0.00 | 0.00 | 48 | 1015.0 |
| 20260906150329 | 86 | 234 | 0.9 | 4.3 | 0.00 | 0.00 | 0.00 | 51 | 1014.9 |
| 20260906144842 | 85 | 234 | 0.9 | 4.3 | 0.00 | 0.00 | 0.00 | 54 | 1014.9 |
| 20260906143330 | 84 | 215 | 2.6 | 3.5 | 0.00 | 0.00 | 0.00 | 56 | 1015.0 |
| 20260906141827 | 82 | 186 | 1.7 | 2.6 | 0.00 | 0.00 | 0.00 | 57 | 1015.1 |
| 20260906140319 | 81 | 182 | 0.9 | 3.5 | 0.00 | 0.00 | 0.00 | 58 | 1015.0 |
| 20260906134854 | 80 | 184 | 1.7 | 4.3 | 0.00 | 0.00 | 0.00 | 59 | 1015.0 |
| 20260906133324 | 78 | 180 | 1.7 | 4.3 | 0.00 | 0.00 | 0.00 | 61 | 1014.8 |
| 20260906131817 | 77 | 179 | 1.7 | 4.3 | 0.00 | 0.00 | 0.00 | 61 | 1014.7 |
| 20260906130350 | 77 | 188 | 0.0 | 1.7 | 0.00 | 0.00 | 0.00 | 64 | 1014.6 |
| 20260906124821 | 76 | 181 | 0.9 | 4.3 | 0.00 | 0.00 | 0.00 | 63 | 1014.4 |
| 20260906123331 | 76 | 155 | 1.7 | 5.2 | 0.00 | 0.00 | 0.00 | 63 | 1014.2 |
| 20260906121825 | 76 | 182 | 2.6 | 6.1 | 0.00 | 0.00 | 0.00 | 63 | 1013.9 |
| 20260906120319 | 76 | 181 | 3.5 | 6.1 | 0.00 | 0.00 | 0.00 | 63 | 1013.7 |
| 20260906114833 | 76 | 169 | 3.5 | 7.0 | 0.00 | 0.00 | 0.00 | 63 | 1013.6 |
| 20260906113322 | 76 | 183 | 2.6 | 6.1 | 0.00 | 0.00 | 0.00 | 63 | 1013.5 |
| 20260906111816 | 76 | 180 | 2.6 | 4.3 | 0.00 | 0.00 | 0.00 | 63 | 1013.5 |
| 20260906110328 | 76 | 173 | 1.7 | 3.5 | 0.00 | 0.00 | 0.00 | 63 | 1013.3 |
| 20260906104841 | 76 | 182 | 1.7 | 3.5 | 0.00 | 0.00 | 0.00 | 63 | 1013.3 |
| 20260906103325 | 76 | 178 | 2.6 | 4.3 | 0.00 | 0.00 | 0.00 | 63 | 1013.2 |
| 20260906101815 | 76 | 178 | 1.7 | 2.6 | 0.00 | 0.00 | 0.00 | 62 | 1013.1 |
| 20260906100333 | 76 | 173 | 1.7 | 4.3 | 0.00 | 0.00 | 0.00 | 62 | 1013.0 |
| 20260906094822 | 76 | 182 | 1.7 | 2.6 | 0.00 | 0.00 | 0.00 | 61 | 1013.0 |
| 20260906093316 | 77 | 179 | 1.7 | 4.3 | 0.00 | 0.00 | 0.00 | 60 | 1013.1 |
| 20260906091826 | 77 | 178 | 1.7 | 5.2 | 0.00 | 0.00 | 0.00 | 59 | 1012.9 |
| 20260906090320 | 78 | 176 | 2.6 | 6.1 | 0.00 | 0.00 | 0.00 | 58 | 1012.8 |
| 20260906084815 | 78 | 176 | 1.7 | 4.3 | 0.00 | 0.00 | 0.00 | 58 | 1012.8 |
| 20260906083349 | 78 | 178 | 2.6 | 5.2 | 0.00 | 0.00 | 0.00 | 57 | 1012.9 |
| 20260906081819 | 78 | 175 | 3.5 | 7.8 | 0.00 | 0.00 | 0.00 | 56 | 1012.6 |
| 20260906080333 | 79 | 186 | 3.5 | 8.7 | 0.00 | 0.00 | 0.00 | 54 | 1012.6 |
| 20260906074843 | 79 | 180 | 3.5 | 6.1 | 0.00 | 0.00 | 0.00 | 53 | 1012.8 |
| 20260906073314 | 79 | 188 | 5.2 | 10.4 | 0.00 | 0.00 | 0.00 | 52 | 1013.1 |
| 20260906071829 | 80 | 180 | 3.5 | 7.0 | 0.00 | 0.00 | 0.00 | 51 | 1013.2 |
| 20260906070324 | 80 | 184 | 2.6 | 7.0 | 0.00 | 0.00 | 0.00 | 50 | 1013.2 |
| 20260906064820 | 80 | 173 | 4.3 | 6.1 | 0.00 | 0.00 | 0.00 | 49 | 1013.4 |
| 20260906063331 | 81 | 180 | 2.6 | 6.1 | 0.00 | 0.00 | 0.00 | 49 | 1013.5 |
| 20260906061823 | 81 | 173 | 2.6 | 4.3 | 0.00 | 0.00 | 0.00 | 48 | 1013.5 |
| 20260906060333 | 81 | 180 | 1.7 | 6.1 | 0.00 | 0.00 | 0.00 | 47 | 1013.7 |
| 20260906054824 | 82 | 180 | 1.7 | 4.3 | 0.00 | 0.00 | 0.00 | 46 | 1013.7 |
| 20260906053332 | 82 | 173 | 1.7 | 4.3 | 0.00 | 0.00 | 0.00 | 46 | 1013.6 |
| 20260906051826 | 83 | 167 | 1.7 | 4.3 | 0.00 | 0.00 | 0.00 | 45 | 1013.5 |
| 20260906050320 | 84 | 177 | 1.7 | 4.3 | 0.00 | 0.00 | 0.00 | 44 | 1013.5 |
| 20260906044818 | 84 | 180 | 1.7 | 5.2 | 0.00 | 0.00 | 0.00 | 43 | 1013.5 |
| 20260906043333 | 85 | 167 | 1.7 | 5.2 | 0.00 | 0.00 | 0.00 | 41 | 1013.5 |
| 20260906041830 | 86 | 181 | 2.6 | 7.0 | 0.00 | 0.00 | 0.00 | 40 | 1013.5 |
| 20260906040340 | 87 | 183 | 2.6 | 6.1 | 0.00 | 0.00 | 0.00 | 40 | 1013.4 |
| 20260906034831 | 87 | 200 | 1.7 | 6.1 | 0.00 | 0.00 | 0.00 | 40 | 1013.4 |
| 20260906033323 | 87 | 191 | 2.6 | 7.0 | 0.00 | 0.00 | 0.00 | 39 | 1013.2 |
| 20260906031840 | 87 | 144 | 1.7 | 5.2 | 0.00 | 0.00 | 0.00 | 39 | 1012.9 |
| 20260906030345 | 88 | 192 | 1.7 | 3.5 | 0.00 | 0.00 | 0.00 | 38 | 1012.8 |
| 20260906024839 | 88 | 146 | 0.9 | 4.3 | 0.00 | 0.00 | 0.00 | 37 | 1012.6 |
| 20260906023324 | 88 | 125 | 0.9 | 2.6 | 0.00 | 0.00 | 0.00 | 36 | 1012.3 |
| 20260906021834 | 89 | 196 | 0.9 | 5.2 | 0.00 | 0.00 | 0.00 | 35 | 1012.2 |
| 20260906020326 | 90 | 214 | 0.9 | 3.5 | 0.00 | 0.00 | 0.00 | 34 | 1012.0 |
| 20260906014822 | 90 | 258 | 1.7 | 6.1 | 0.00 | 0.00 | 0.00 | 34 | 1011.8 |
| 20260906013353 | 91 | 134 | 0.9 | 4.3 | 0.00 | 0.00 | 0.00 | 33 | 1011.6 |
| 20260906011845 | 91 | 175 | 1.7 | 3.5 | 0.00 | 0.00 | 0.00 | 33 | 1011.2 |
| 20260906010318 | 92 | 167 | 0.9 | 4.3 | 0.00 | 0.00 | 0.00 | 32 | 1011.1 |
| 20260906004830 | 93 | 98 | 0.9 | 4.3 | 0.00 | 0.00 | 0.00 | 32 | 1010.9 |
| 20260906003321 | 94 | 188 | 1.7 | 7.8 | 0.00 | 0.00 | 0.00 | 31 | 1010.9 |
| 20260906001817 | 95 | 130 | 1.7 | 5.2 | 0.00 | 0.00 | 0.00 | 30 | 1010.8 |
| 20260906000355 | 96 | 84 | 5.2 | 10.4 | 0.00 | 0.00 | 0.00 | 30 | 1010.8 |
| 20260905234845 | 96 | 169 | 2.6 | 9.6 | 0.00 | 0.00 | 0.00 | 30 | 1010.7 |
| 20260905233352 | 96 | 68 | 5.2 | 12.2 | 0.00 | 0.00 | 0.00 | 30 | 1010.6 |
| 20260905231847 | 96 | 87 | 5.2 | 11.3 | 0.00 | 0.00 | 0.00 | 30 | 1010.4 |
| 20260905230318 | 96 | 73 | 2.6 | 7.8 | 0.00 | 0.00 | 0.00 | 30 | 1010.4 |
| 20260905224830 | 96 | 87 | 3.5 | 9.6 | 0.00 | 0.00 | 0.00 | 30 | 1010.4 |
| 20260905223341 | 97 | 230 | 5.2 | 10.4 | 0.00 | 0.00 | 0.00 | 30 | 1010.5 |
| 20260905221831 | 99 | 194 | 0.9 | 7.0 | 0.00 | 0.00 | 0.00 | 28 | 1010.5 |